sat.trackr.live / text

‹ back to catalog

STARLINK-32321

NORAD 61065 · 2024-164R

PAYLOAD ACTIVE UNKNOWN

§ Identity

Operator
Country
US
Launch date
2024-09-13
Launch site
AFWTR
Launch vehicle
Mass (kg)
RCS (m²)

Purposes: comms

External: N2YO · Heavens-Above · Gunter

§ Orbital elements

Epoch: 2026-09-21T03:30:38.804544Z

Period
93.85 min
Inclination
53.1614°
Eccentricity
0.0001461
Mean motion
15.34386416 rev/d
Perigee alt
461.7 km
Apogee alt
463.7 km
Semi-major
6,840.9 km
B*
-3.1272e-6
RAAN
262.4796°
Arg perigee
59.9297°
Mean anomaly
300.1851°
Rev number
11,341

§ Raw data

STARLINK-323211 61065U 24164R   26264.14628246 -.00000482  00000+0 -31272-5 0  99932 61065  53.1614 262.4796 0001461  59.9297 300.1851 15.34386416113418

JSON: /api/v1/satellites/61065 · /tle

For live sub-satellite position, see the globe view (requires WebGL).

§ Visibility from observer

Set your observer location to see the next 7 days of passes ≥ 10°. The values pass through the URL so the page stays shareable.

No JS? Fill the form by hand. The geolocation button needs JavaScript.